SCP
0 -0 -0 -0 -0 -0 -0 -0 -0 -0 0 0 0 0 -0 -0 -0 -0 -0 -0 0 -0 -0 -0 -0 0 0 0 0 0 0 0 0 0 0 0 0 0 0 0 0 0 0 0 0 0 0
0 -0 -0 -0 -0 -0 -0 -0 0 0 0 0 0 -0 -0 -0 -0 -0 -0 -0 0 0 -0 -0 0 0 0 0 0 0 0 0 0 0 0 0 0 0 0 0 0 0 0 0 0 0 0
0 0 -0 0 0 0 0 0 0 0 0 0 -0 -0 0 -0 0 -0 -0 -0 -0 0 0 0 0 0 0 0 0 0 0 0 0 0 0 0 0 0 0 0 0 0 0 0 0 0 0
0 0 0 0 0 0 0 0 0 0 0 -0 -0 -0 0 0 0 -0 -0 -0 -0 0 0 0 0 0 0 0 0 0 0 0 0 0 0 0 0 0 0 0 0 0 0 0 0 0 0
0 0 0 0 0 0 0 0 0 0 0 0 0 -0 -0 0 0 -0 0 0 0 0 0 0 0 0 0 0 0 0 0 0 0 0 0 0 0 0 0 0 0 0 0 0 0 0 0
0 0 0 0 0 0 0 0 0 0 0 0 0 0 0 0 0 0 0 0 0 0 0 0 0 0 0 0 0 0 0 0 0 0 0 0 0 0 0 0 0 0 0 0 0 0 0
0 0 0 0 0 0 0 0 0 0 0 0 0 0 0 0 0 0 0 0 0 0 0 0 0 0 0 0 0 0 0 0 0 0 0 0 0 0 0 0 0 0 0 0 0 0 0
0 0 0 0 0 0 0 0 0 0 0 0 0 0 0 0 0 0 0 0 0 0 0 0 0 0 0 0 0 0 0 0 0 0 0 0 0 0 0 0 0 0 0 0 0 0 0
0 0 0 0 0 0 0 0 0 0 0 0 0 0 0 0 0 0 0 0 0 0 0 0 0 0 0 0 0 0 0 0 0 0 0 0 0 0 0 0 0 0 0 0 0 0 0
0 0 0 0 0 0 0 0 0 0 0 0 0 0 0 0 0 0 0 0 0 0 0 0 0 0 0 0 0 0 0 0 0 0 0 0 0 0 0 0 0 0 0 0 0 0 0
0 0 0 0 0 0 0 0 0 0 0 0 0 0 0 0 0 0 0 0 0 0 0 0 0 0 0 0 0 0 0 0 0 0 0 0 0 0 0 0 0 0 0 0 0 0 0
0 0 0 0 0 0 0 0 0 0 0 0 -0 -0 -0 0 0 0 0 0 0 0 -0 0 0 0 0 0 0 0 0 0 0 0 0 0 0 0 0 0 0 0 0 0 0 0 0
0 0 0 0 0 0 0 0 0 0 0 0 -0 -0 -0 0 0 0 0 0 -0 0 0 0 0 0 0 0 0 0 0 -0 0 0 0 0 0 0 0 0 0 0 0 0 0 0 0
0 0 0 0 0 0 0 0 0 0 0 -0 -0 -0 0 0 0 -0 -0 0 0 0 0 0 0 0 0 0 0 0 0 0 0 0 0 0 0 0 0 -0 0 0 0 0 0 0 0
0 0 0 0 0 0 0 0 0 0 0 -0 -0 0 0 0 0 0 0 0 0 0 0 0 0 0 0 0 0 0 0 0 0 0 0 0 0 0 0 0 0 0 0 0 0 0 0
0 0 0 0 0 0 0 0 0 0 0 0 0 0 0 0 0 0 0 0 0 0 0 0 0 0 0 0 0 0 0 0 0 0 0 0 0 -0 0 0 0 0 0 0 0 0 0
0 0 0 0 0 0 0 0 0 0 0 0 0 0 0 0 0 0 0 0 0 0 0 0 0 0 0 0 0 0 0 0 0 0 0 0 0 0 0 0 0 0 0 0 0 0 0
0 0 0 0 0 0 0 0 0 0 0 0 0 -0 0 0 0 0 0 0 0 0 0 0 0 0 0 0 0 0 0 0 0 0 0 0 0 0 0 0 0 -0 0 0 -0 -0 -0
0 0 0 0 0 0 0 0 0 0 0 0 0 0 0 0 0 0 0 0 0 0 0 0 0 0 0 0 0 0 0 0 0 0 0 0 0 0 0 0 0 -0 -0 -0 -0 0 0
0 0 0 0 0 0 0 0 0 0 0 0 0 0 0 0 0 0 0 0 0 0 0 0 0 0 0 0 0 0 0 0 0 0 0 0 0 0 0 0 0 0 0 0 0 0 0
0 0 0 0 0 0 0 0 0 0 0 0 0 0 0 0 0 0 0 0 0 0 0 0 0 0 0 0 0 0 0 0 0 0 0 0 0 0 0 0 0 0 0 0 0 0 0
0 0 0 0 0 0 0 0 0 0 0 0 0 0 0 0 0 0 0 0 0 0 0 0 0 0 0 0 0 0 0 0 0 0 0 0 0 0 0 -0 -0 0 0 0 -0 0 0
0 0 0 0 0 0 0 0 0 0 0 0 0 0 0 0 0 0 0 0 0 0 0 0 0 0 0 0 0 0 0 -0 0 -0 -0 0 0 0 0 -0 0 0 -0 0 0 -0 0
0 0 0 0 0 0 0 0 0 0 0 0 0 0 0 0 0 0 0 0 0 0 0 0 0 0 0 0 0 0 0 0 0 -0 0 0 0 0 0 0 0 0 0 0 -0 0 0
0 0 0 0 0 0 0 0 0 0 0 0 0 0 0 0 0 0 0 0 0 0 0 0 0 0 0 0 0 0 0 0 0 -0 0 -0 -0 0 0 0 0 0 0 -0 -0 0 0
0 0 0 0 0 0 0 0 0 0 0 0 0 0 0 0 0 0 0 0 0 -0 -0 0 0 0 0 0 0 0 0 0 0 0 -0 0 0 0 0 0 0 0 0 0 0 0 0
0 0 0 0 0 0 0 0 0 0 0 0 0 0 0 0 0 0 0 -0 -0 0 0 0 0 0 0 0 0 0 0 0 0 -0 -0 -0 0 0 0 0 0 0 0 0 0 0 0
0 0 0 0 0 0 0 0 0 0 0 0 0 0 0 0 0 0 0 0 0 0 0 0 0 0 0 0 0 0 0 0 0 -0 -0 -0 -0 0 0 0 0 0 0 0 0 0 0
0 0 0 0 0 0 0 0 0 0 0 0 0 0 0 0 0 0 0 0 0 0 0 0 0 0 0 0 0 0 0 0 0 0 -0 0 -0 -0 0 0 0 0 0 0 0 0 0
Wind_Speed_500mb
29 32 34 36 38 40 41 42 43 43 44 44 44 45 46 45 47 48 51 52 54 55 56 57 51 40 28 19 48 39 34 31 30 21 43 61 50 42 20 14 15 24 17 31 52 64 53
30 31 32 35 38 41 43 44 44 44 44 45 45 45 49 50 51 52 51 47 50 53 59 61 48 28 20 13 22 20 21 19 28 35 47 63 42 55 23 12 30 10 38 47 48 44 32
31 34 35 37 39 42 43 43 44 45 48 51 56 56 56 61 59 56 55 51 45 51 55 44 35 25 25 55 33 23 13 11 16 29 45 59 52 47 22 5 38 24 27 27 17 15 16
32 36 37 38 41 44 45 47 49 51 53 55 60 61 62 64 65 71 68 52 44 51 34 29 20 11 21 23 28 25 31 21 21 32 48 38 58 33 14 10 9 7 6 8 13 32 16
35 38 38 40 43 44 45 48 49 50 53 56 60 65 68 66 67 70 67 53 47 29 17 14 8 5 23 21 25 23 23 32 28 24 33 40 36 40 11 7 10 10 30 31 10 14 14
34 36 40 42 42 45 46 48 50 53 57 61 64 67 70 68 63 65 60 50 20 16 16 7 12 9 7 25 49 27 28 23 24 17 16 19 20 10 13 16 39 39 29 10 17 16 19
34 37 39 42 45 44 45 48 53 56 57 59 63 67 67 64 56 47 66 29 14 6 6 14 45 28 50 37 37 39 27 20 22 16 15 10 12 35 36 47 47 26 18 35 4 11 12
35 36 38 42 45 44 47 51 51 51 53 59 65 69 68 57 30 47 40 31 20 22 23 19 13 14 26 23 19 45 10 10 14 19 3 10 35 17 10 17 32 40 44 63 19 8 7
35 39 39 41 44 47 47 47 47 47 53 61 68 63 56 47 20 41 40 48 25 12 11 20 5 17 32 28 15 37 33 14 8 8 11 31 20 7 5 29 26 35 45 43 37 9 16
36 38 37 38 42 46 45 42 41 45 54 60 54 51 54 51 17 53 31 53 25 6 7 9 9 18 47 39 3 41 53 15 6 11 16 24 26 40 42 42 16 43 26 34 33 15 31
36 34 34 39 40 41 39 37 40 48 56 57 45 52 53 52 31 52 52 47 13 1 8 14 11 17 39 25 27 37 43 20 11 13 5 10 26 34 26 13 14 47 17 27 29 26 24
34 33 34 35 36 33 34 37 43 50 56 55 42 49 50 53 51 61 49 24 4 6 12 15 11 20 23 23 16 28 39 26 14 8 8 6 28 11 25 29 23 34 26 24 22 25 17
31 33 34 30 28 31 33 38 43 49 53 53 37 42 41 52 63 57 47 3 8 5 20 15 17 26 21 19 13 15 20 12 8 13 15 16 10 3 29 33 25 16 8 6 10 10 14
27 28 26 26 27 30 35 38 43 47 50 52 39 32 35 43 49 53 33 9 12 8 6 12 14 27 8 20 8 16 18 11 3 4 6 8 14 17 19 3 16 33 11 8 9 11 4
24 22 21 22 27 31 36 41 45 48 50 49 40 21 35 41 40 44 12 11 2 4 11 12 24 7 6 17 8 15 11 7 7 2 4 5 10 25 32 26 10 14 13 17 11 25 20
19 17 19 23 27 31 37 41 46 50 52 53 41 22 31 46 33 26 13 6 2 1 9 7 6 7 12 11 10 13 8 10 7 8 5 9 16 12 19 16 3 18 10 11 8 9 14
16 16 19 23 28 33 38 42 47 51 53 52 34 11 24 37 22 24 7 6 6 11 19 6 7 11 9 11 7 7 12 18 9 12 8 9 9 12 11 6 19 16 1 5 2 6 5
13 16 20 25 31 36 40 43 47 51 52 51 26 7 29 33 16 7 3 8 12 10 9 9 7 9 6 7 11 7 11 9 23 7 13 6 4 7 18 31 14 11 9 11 2 8 6
12 16 22 28 32 37 41 43 45 47 46 46 23 12 16 22 7 6 10 9 7 6 10 6 8 6 4 10 12 10 9 11 31 17 9 6 5 7 15 9 6 7 16 14 13 12 6
13 18 23 28 34 38 39 43 44 42 41 36 15 7 11 16 7 4 8 8 8 14 11 9 12 11 10 17 19 14 30 16 23 32 44 13 2 8 14 15 8 10 27 31 10 6 7
15 20 25 29 33 37 41 42 44 42 37 24 14 2 6 9 6 7 5 7 9 10 6 10 6 11 13 13 29 15 11 35 14 34 6 2 10 14 20 9 27 20 25 34 28 24 7
17 22 26 31 35 38 38 40 40 43 38 14 12 10 8 24 18 4 4 7 7 9 6 11 8 23 22 17 24 45 33 31 25 7 3 6 14 7 7 34 44 32 34 21 32 25 18
19 24 27 32 34 36 39 40 40 41 39 11 15 14 13 12 3 3 6 10 16 25 18 35 19 25 14 18 36 73 60 62 37 29 28 10 6 4 4 33 17 19 34 24 24 31 14
22 27 31 32 32 35 40 39 35 34 32 19 20 20 11 8 1 10 17 31 33 36 23 21 27 10 17 71 65 37 11 8 18 24 25 9 9 4 5 7 7 10 17 23 32 31 29
23 26 30 32 34 36 34 31 30 34 33 30 27 15 11 7 21 22 33 20 39 23 12 11 19 46 45 32 9 14 8 6 13 18 28 22 4 6 5 8 10 5 16 11 13 13 22
23 28 31 35 37 40 39 31 30 29 31 29 26 9 16 11 24 39 16 39 10 18 12 10 46 29 35 5 5 4 5 11 12 24 31 25 23 8 7 8 5 6 28 21 11 1 28
24 30 35 39 43 43 41 34 27 21 23 27 15 15 12 19 33 39 15 16 24 17 7 15 39 22 31 8 7 6 6 3 8 11 18 15 12 13 11 7 2 19 34 7 3 6 26
29 34 40 42 40 38 34 29 24 19 24 24 13 15 11 20 36 44 47 35 29 31 6 29 19 12 12 12 7 5 8 7 8 7 8 8 8 7 7 6 3 42 8 8 9 15 22
32 36 36 35 34 33 31 25 21 19 22 23 17 12 6 27 22 44 44 42 38 27 24 16 8 12 10 6 7 8 9 9 8 4 9 7 2 2 3 2 3 16 19 12 13 15 22
Wind_Direction_500mb
354 354 351 348 347 346 348 350 346 342 341 338 335 332 329 327 325 323 321 322 321 317 315 314 309 300 289 258 255 272 258 260 269 209 199 194 189 196 190 196 219 241 232 229 235 248 263
350 348 348 348 349 348 348 344 339 338 336 334 333 334 330 329 325 321 319 318 315 311 310 308 306 287 261 258 288 287 269 266 243 218 203 198 206 204 217 213 203 228 222 242 249 250 248
346 345 349 351 351 346 339 335 336 339 339 340 336 338 337 335 333 325 321 322 311 306 304 302 298 269 253 262 286 277 266 233 233 232 212 209 206 191 222 286 247 251 272 271 227 216 235
343 347 351 351 344 338 337 339 342 343 342 341 345 340 338 334 335 329 327 332 318 308 307 311 295 211 254 304 310 301 267 246 232 232 227 233 216 217 204 241 331 255 243 234 202 214 212
349 350 348 342 338 339 341 342 342 340 341 342 344 339 335 335 331 325 325 333 325 312 324 335 346 272 271 335 354 343 317 256 253 239 233 233 222 217 173 157 331 223 251 239 272 187 180
349 345 343 341 339 340 341 341 345 347 348 346 342 338 334 334 330 326 330 338 326 322 342 357 48 313 281 318 311 311 312 291 224 234 226 218 227 220 193 184 225 225 238 250 223 200 201
343 341 342 339 338 340 342 349 353 354 350 347 343 342 341 345 343 343 344 358 357 286 28 324 297 272 302 334 326 282 283 289 238 217 202 210 219 223 223 228 251 284 231 244 184 216 217
339 342 342 339 338 344 351 356 359 356 353 350 346 343 343 349 14 360 7 53 19 322 306 343 334 293 345 337 317 5 307 224 187 221 207 279 248 254 255 245 257 260 264 260 260 187 225
344 339 341 340 344 354 359 0 1 359 355 353 349 353 358 356 28 10 21 18 352 310 274 298 17 8 4 334 344 349 344 305 230 239 221 232 234 47 266 251 243 246 247 265 266 261 254
339 338 344 347 356 359 2 3 5 2 2 356 1 8 6 7 356 356 1 354 339 269 14 325 21 24 1 337 251 351 10 305 295 254 230 251 262 262 269 266 219 261 245 258 261 233 254
337 342 348 352 360 3 8 11 9 6 7 3 6 7 7 7 352 350 337 345 342 147 339 360 7 353 359 32 327 348 5 350 337 309 325 275 332 324 314 269 241 258 205 232 243 231 243
343 349 355 359 3 12 16 13 12 11 11 7 4 3 3 4 352 351 345 343 72 56 252 348 359 341 350 4 352 332 357 6 301 289 264 279 278 265 258 305 302 296 307 304 287 242 229
351 359 1 5 13 14 13 13 11 8 6 5 1 4 9 4 351 347 344 20 25 106 359 355 328 333 322 349 343 5 344 12 13 344 348 315 304 35 37 350 311 4 203 237 221 209 237
356 359 6 14 15 14 13 12 9 5 359 359 354 4 9 3 351 345 351 46 63 4 345 326 327 323 349 4 335 336 344 329 19 351 300 333 325 6 333 158 311 306 252 257 255 206 180
356 4 14 17 16 13 8 4 3 1 357 354 352 339 6 1 355 350 9 52 88 342 333 300 309 323 309 355 303 352 309 262 200 166 129 309 262 323 306 317 269 313 279 319 285 239 258
1 9 18 13 10 7 4 360 357 358 357 354 349 335 2 352 356 358 59 99 6 4 318 292 296 347 312 331 326 346 291 269 323 199 184 269 282 270 311 315 16 329 279 336 328 298 251
16 21 12 6 4 1 359 357 354 353 356 356 347 344 347 352 2 43 75 310 308 309 341 295 285 287 280 315 316 268 277 299 5 334 312 274 226 295 324 328 324 328 42 283 320 277 288
20 17 6 2 358 356 358 355 352 352 353 358 348 4 342 353 45 31 11 307 297 296 309 286 291 246 272 308 282 261 247 232 343 346 315 255 298 269 260 288 143 106 347 306 227 284 246
16 8 1 357 354 355 354 352 354 353 354 357 345 317 342 9 57 343 320 303 273 308 303 305 281 254 316 301 301 245 271 284 328 350 309 316 263 296 312 342 42 21 24 334 281 247 34
8 360 355 352 352 349 349 350 351 355 357 358 356 356 354 54 85 90 337 276 283 289 271 274 273 280 333 304 270 277 288 292 341 301 296 301 317 210 242 254 303 21 24 360 337 313 80
355 350 348 349 348 352 351 352 353 358 2 7 19 42 353 321 352 309 309 288 294 319 276 306 288 280 339 304 308 260 276 303 304 294 286 76 250 233 260 261 84 56 45 36 44 3 36
345 349 350 351 353 355 356 356 1 356 4 21 19 3 307 282 283 276 309 257 277 295 270 288 235 314 307 276 272 294 302 296 287 309 27 280 279 265 278 91 91 60 31 52 33 5 56
357 351 355 354 354 353 359 358 1 0 4 19 348 330 297 276 278 77 243 255 286 297 275 248 303 312 299 283 296 281 279 271 261 295 304 262 276 258 240 144 143 36 7 69 66 30 7
358 1 359 358 355 353 351 355 2 1 7 5 334 319 283 277 206 249 284 288 290 284 269 293 313 276 300 314 308 299 274 336 89 48 21 328 313 260 97 177 44 108 36 73 81 37 21
2 1 357 354 346 343 346 352 350 347 348 351 347 321 302 289 353 336 328 317 312 338 333 292 335 319 320 318 323 340 351 42 100 63 42 28 329 17 86 52 119 70 25 348 6 43 19
357 354 350 345 340 337 334 340 339 340 337 337 360 344 297 303 4 323 336 9 340 346 344 312 333 344 352 17 328 312 344 5 338 342 20 24 31 71 12 97 153 12 332 317 305 159 10
351 346 342 337 335 332 333 337 344 347 341 343 338 335 295 95 22 33 27 344 357 342 310 317 336 330 1 6 20 15 4 336 26 22 343 356 3 40 7 86 110 343 322 10 176 337 355
344 340 337 338 339 342 345 353 6 1 349 344 1 328 21 99 53 52 51 27 9 11 347 308 340 358 346 23 36 346 37 42 78 20 9 34 359 16 334 61 15 349 17 67 297 338 351
341 339 342 346 350 355 1 14 23 360 356 37 62 17 85 98 93 60 56 42 29 4 314 305 302 353 326 357 14 45 35 22 5 42 8 32 73 280 117 264 69 43 69 36 359 340 346
Wind_Speed_850mb
29 32 34 36 38 40 41 42 43 43 44 44 44 45 46 45 47 48 51 52 54 55 56 57 51 40 28 19 48 39 34 31 30 21 43 61 50 42 20 14 15 24 17 31 52 64 53
30 31 32 35 38 41 43 44 44 44 44 45 45 45 49 50 51 52 51 47 50 53 59 61 48 28 20 13 22 20 21 19 28 35 47 63 42 55 23 12 30 10 38 47 48 44 32
31 34 35 37 39 42 43 43 44 45 48 51 56 56 56 61 59 56 55 51 45 51 55 44 35 25 25 55 33 23 13 11 16 29 45 59 52 47 22 5 38 24 27 27 17 15 16
32 36 37 38 41 44 45 47 49 51 53 55 60 61 62 64 65 71 68 52 44 51 34 29 20 11 21 23 28 25 31 21 21 32 48 38 58 33 14 10 9 7 6 8 13 32 16
35 38 38 40 43 44 45 48 49 50 53 56 60 65 68 66 67 70 67 53 47 29 17 14 8 5 23 21 25 23 23 32 28 24 33 40 36 40 11 7 10 10 30 31 10 14 14
34 36 40 42 42 45 46 48 50 53 57 61 64 67 70 68 63 65 60 50 20 16 16 7 12 9 7 25 49 27 28 23 24 17 16 19 20 10 13 16 39 39 29 10 17 16 19
34 37 39 42 45 44 45 48 53 56 57 59 63 67 67 64 56 47 66 29 14 6 6 14 45 28 50 37 37 39 27 20 22 16 15 10 12 35 36 47 47 26 18 35 4 11 12
35 36 38 42 45 44 47 51 51 51 53 59 65 69 68 57 30 47 40 31 20 22 23 19 13 14 26 23 19 45 10 10 14 19 3 10 35 17 10 17 32 40 44 63 19 8 7
35 39 39 41 44 47 47 47 47 47 53 61 68 63 56 47 20 41 40 48 25 12 11 20 5 17 32 28 15 37 33 14 8 8 11 31 20 7 5 29 26 35 45 43 37 9 16
36 38 37 38 42 46 45 42 41 45 54 60 54 51 54 51 17 53 31 53 25 6 7 9 9 18 47 39 3 41 53 15 6 11 16 24 26 40 42 42 16 43 26 34 33 15 31
36 34 34 39 40 41 39 37 40 48 56 57 45 52 53 52 31 52 52 47 13 1 8 14 11 17 39 25 27 37 43 20 11 13 5 10 26 34 26 13 14 47 17 27 29 26 24
34 33 34 35 36 33 34 37 43 50 56 55 42 49 50 53 51 61 49 24 4 6 12 15 11 20 23 23 16 28 39 26 14 8 8 6 28 11 25 29 23 34 26 24 22 25 17
31 33 34 30 28 31 33 38 43 49 53 53 37 42 41 52 63 57 47 3 8 5 20 15 17 26 21 19 13 15 20 12 8 13 15 16 10 3 29 33 25 16 8 6 10 10 14
27 28 26 26 27 30 35 38 43 47 50 52 39 32 35 43 49 53 33 9 12 8 6 12 14 27 8 20 8 16 18 11 3 4 6 8 14 17 19 3 16 33 11 8 9 11 4
24 22 21 22 27 31 36 41 45 48 50 49 40 21 35 41 40 44 12 11 2 4 11 12 24 7 6 17 8 15 11 7 7 2 4 5 10 25 32 26 10 14 13 17 11 25 20
19 17 19 23 27 31 37 41 46 50 52 53 41 22 31 46 33 26 13 6 2 1 9 7 6 7 12 11 10 13 8 10 7 8 5 9 16 12 19 16 3 18 10 11 8 9 14
16 16 19 23 28 33 38 42 47 51 53 52 34 11 24 37 22 24 7 6 6 11 19 6 7 11 9 11 7 7 12 18 9 12 8 9 9 12 11 6 19 16 1 5 2 6 5
13 16 20 25 31 36 40 43 47 51 52 51 26 7 29 33 16 7 3 8 12 10 9 9 7 9 6 7 11 7 11 9 23 7 13 6 4 7 18 31 14 11 9 11 2 8 6
12 16 22 28 32 37 41 43 45 47 46 46 23 12 16 22 7 6 10 9 7 6 10 6 8 6 4 10 12 10 9 11 31 17 9 6 5 7 15 9 6 7 16 14 13 12 6
13 18 23 28 34 38 39 43 44 42 41 36 15 7 11 16 7 4 8 8 8 14 11 9 12 11 10 17 19 14 30 16 23 32 44 13 2 8 14 15 8 10 27 31 10 6 7
15 20 25 29 33 37 41 42 44 42 37 24 14 2 6 9 6 7 5 7 9 10 6 10 6 11 13 13 29 15 11 35 14 34 6 2 10 14 20 9 27 20 25 34 28 24 7
17 22 26 31 35 38 38 40 40 43 38 14 12 10 8 24 18 4 4 7 7 9 6 11 8 23 22 17 24 45 33 31 25 7 3 6 14 7 7 34 44 32 34 21 32 25 18
19 24 27 32 34 36 39 40 40 41 39 11 15 14 13 12 3 3 6 10 16 25 18 35 19 25 14 18 36 73 60 62 37 29 28 10 6 4 4 33 17 19 34 24 24 31 14
22 27 31 32 32 35 40 39 35 34 32 19 20 20 11 8 1 10 17 31 33 36 23 21 27 10 17 71 65 37 11 8 18 24 25 9 9 4 5 7 7 10 17 23 32 31 29
23 26 30 32 34 36 34 31 30 34 33 30 27 15 11 7 21 22 33 20 39 23 12 11 19 46 45 32 9 14 8 6 13 18 28 22 4 6 5 8 10 5 16 11 13 13 22
23 28 31 35 37 40 39 31 30 29 31 29 26 9 16 11 24 39 16 39 10 18 12 10 46 29 35 5 5 4 5 11 12 24 31 25 23 8 7 8 5 6 28 21 11 1 28
24 30 35 39 43 43 41 34 27 21 23 27 15 15 12 19 33 39 15 16 24 17 7 15 39 22 31 8 7 6 6 3 8 11 18 15 12 13 11 7 2 19 34 7 3 6 26
29 34 40 42 40 38 34 29 24 19 24 24 13 15 11 20 36 44 47 35 29 31 6 29 19 12 12 12 7 5 8 7 8 7 8 8 8 7 7 6 3 42 8 8 9 15 22
32 36 36 35 34 33 31 25 21 19 22 23 17 12 6 27 22 44 44 42 38 27 24 16 8 12 10 6 7 8 9 9 8 4 9 7 2 2 3 2 3 16 19 12 13 15 22
Wind_Direction_850mb
354 354 351 348 347 346 348 350 346 342 341 338 335 332 329 327 325 323 321 322 321 317 315 314 309 300 289 258 255 272 258 260 269 209 199 194 189 196 190 196 219 241 232 229 235 248 263
350 348 348 348 349 348 348 344 339 338 336 334 333 334 330 329 325 321 319 318 315 311 310 308 306 287 261 258 288 287 269 266 243 218 203 198 206 204 217 213 203 228 222 242 249 250 248
346 345 349 351 351 346 339 335 336 339 339 340 336 338 337 335 333 325 321 322 311 306 304 302 298 269 253 262 286 277 266 233 233 232 212 209 206 191 222 286 247 251 272 271 227 216 235
343 347 351 351 344 338 337 339 342 343 342 341 345 340 338 334 335 329 327 332 318 308 307 311 295 211 254 304 310 301 267 246 232 232 227 233 216 217 204 241 331 255 243 234 202 214 212
349 350 348 342 338 339 341 342 342 340 341 342 344 339 335 335 331 325 325 333 325 312 324 335 346 272 271 335 354 343 317 256 253 239 233 233 222 217 173 157 331 223 251 239 272 187 180
349 345 343 341 339 340 341 341 345 347 348 346 342 338 334 334 330 326 330 338 326 322 342 357 48 313 281 318 311 311 312 291 224 234 226 218 227 220 193 184 225 225 238 250 223 200 201
343 341 342 339 338 340 342 349 353 354 350 347 343 342 341 345 343 343 344 358 357 286 28 324 297 272 302 334 326 282 283 289 238 217 202 210 219 223 223 228 251 284 231 244 184 216 217
339 342 342 339 338 344 351 356 359 356 353 350 346 343 343 349 14 360 7 53 19 322 306 343 334 293 345 337 317 5 307 224 187 221 207 279 248 254 255 245 257 260 264 260 260 187 225
344 339 341 340 344 354 359 0 1 359 355 353 349 353 358 356 28 10 21 18 352 310 274 298 17 8 4 334 344 349 344 305 230 239 221 232 234 47 266 251 243 246 247 265 266 261 254
339 338 344 347 356 359 2 3 5 2 2 356 1 8 6 7 356 356 1 354 339 269 14 325 21 24 1 337 251 351 10 305 295 254 230 251 262 262 269 266 219 261 245 258 261 233 254
337 342 348 352 360 3 8 11 9 6 7 3 6 7 7 7 352 350 337 345 342 147 339 360 7 353 359 32 327 348 5 350 337 309 325 275 332 324 314 269 241 258 205 232 243 231 243
343 349 355 359 3 12 16 13 12 11 11 7 4 3 3 4 352 351 345 343 72 56 252 348 359 341 350 4 352 332 357 6 301 289 264 279 278 265 258 305 302 296 307 304 287 242 229
351 359 1 5 13 14 13 13 11 8 6 5 1 4 9 4 351 347 344 20 25 106 359 355 328 333 322 349 343 5 344 12 13 344 348 315 304 35 37 350 311 4 203 237 221 209 237
356 359 6 14 15 14 13 12 9 5 359 359 354 4 9 3 351 345 351 46 63 4 345 326 327 323 349 4 335 336 344 329 19 351 300 333 325 6 333 158 311 306 252 257 255 206 180
356 4 14 17 16 13 8 4 3 1 357 354 352 339 6 1 355 350 9 52 88 342 333 300 309 323 309 355 303 352 309 262 200 166 129 309 262 323 306 317 269 313 279 319 285 239 258
1 9 18 13 10 7 4 360 357 358 357 354 349 335 2 352 356 358 59 99 6 4 318 292 296 347 312 331 326 346 291 269 323 199 184 269 282 270 311 315 16 329 279 336 328 298 251
16 21 12 6 4 1 359 357 354 353 356 356 347 344 347 352 2 43 75 310 308 309 341 295 285 287 280 315 316 268 277 299 5 334 312 274 226 295 324 328 324 328 42 283 320 277 288
20 17 6 2 358 356 358 355 352 352 353 358 348 4 342 353 45 31 11 307 297 296 309 286 291 246 272 308 282 261 247 232 343 346 315 255 298 269 260 288 143 106 347 306 227 284 246
16 8 1 357 354 355 354 352 354 353 354 357 345 317 342 9 57 343 320 303 273 308 303 305 281 254 316 301 301 245 271 284 328 350 309 316 263 296 312 342 42 21 24 334 281 247 34
8 360 355 352 352 349 349 350 351 355 357 358 356 356 354 54 85 90 337 276 283 289 271 274 273 280 333 304 270 277 288 292 341 301 296 301 317 210 242 254 303 21 24 360 337 313 80
355 350 348 349 348 352 351 352 353 358 2 7 19 42 353 321 352 309 309 288 294 319 276 306 288 280 339 304 308 260 276 303 304 294 286 76 250 233 260 261 84 56 45 36 44 3 36
345 349 350 351 353 355 356 356 1 356 4 21 19 3 307 282 283 276 309 257 277 295 270 288 235 314 307 276 272 294 302 296 287 309 27 280 279 265 278 91 91 60 31 52 33 5 56
357 351 355 354 354 353 359 358 1 0 4 19 348 330 297 276 278 77 243 255 286 297 275 248 303 312 299 283 296 281 279 271 261 295 304 262 276 258 240 144 143 36 7 69 66 30 7
358 1 359 358 355 353 351 355 2 1 7 5 334 319 283 277 206 249 284 288 290 284 269 293 313 276 300 314 308 299 274 336 89 48 21 328 313 260 97 177 44 108 36 73 81 37 21
2 1 357 354 346 343 346 352 350 347 348 351 347 321 302 289 353 336 328 317 312 338 333 292 335 319 320 318 323 340 351 42 100 63 42 28 329 17 86 52 119 70 25 348 6 43 19
357 354 350 345 340 337 334 340 339 340 337 337 360 344 297 303 4 323 336 9 340 346 344 312 333 344 352 17 328 312 344 5 338 342 20 24 31 71 12 97 153 12 332 317 305 159 10
351 346 342 337 335 332 333 337 344 347 341 343 338 335 295 95 22 33 27 344 357 342 310 317 336 330 1 6 20 15 4 336 26 22 343 356 3 40 7 86 110 343 322 10 176 337 355
344 340 337 338 339 342 345 353 6 1 349 344 1 328 21 99 53 52 51 27 9 11 347 308 340 358 346 23 36 346 37 42 78 20 9 34 359 16 334 61 15 349 17 67 297 338 351
341 339 342 346 350 355 1 14 23 360 356 37 62 17 85 98 93 60 56 42 29 4 314 305 302 353 326 357 14 45 35 22 5 42 8 32 73 280 117 264 69 43 69 36 359 340 346